Total_Precipitation_Accumulation
0.73 0.75 0.69 0.73 0.70 0.68 0.71 0.72 0.61 0.60 0.59 0.50 0.45 0.46 0.50 0.44 0.53 0.56 0.63 0.73 1.03 1.32 1.30 1.18 1.05 0.89 0.78 0.75 0.73 0.77 0.79 0.77 0.77 0.85 0.92 0.83 0.82 0.78 0.68 0.70 0.81 0.77 0.69
0.62 0.74 0.73 0.78 0.69 0.71 0.79 0.72 0.65 0.67 0.67 0.58 0.49 0.50 0.51 0.47 0.52 0.58 0.66 0.79 0.92 1.27 1.54 1.49 1.38 1.21 0.97 0.83 0.76 0.79 0.75 0.69 0.69 0.77 0.81 0.69 0.64 0.61 0.56 0.59 0.72 0.72 0.69
0.62 0.74 0.78 0.77 0.75 0.78 0.81 0.84 0.83 0.78 0.70 0.62 0.54 0.52 0.51 0.51 0.54 0.58 0.61 0.77 0.80 0.84 1.18 1.53 1.63 1.55 1.27 1.06 0.89 0.76 0.73 0.70 0.65 0.66 0.70 0.60 0.53 0.49 0.49 0.53 0.62 0.61 0.62
0.67 0.87 0.92 0.81 0.86 0.97 1.00 1.01 0.97 0.89 0.79 0.75 0.74 0.66 0.58 0.55 0.57 0.60 0.62 0.67 0.69 0.64 0.69 0.83 1.04 1.23 1.41 1.38 1.20 0.95 0.83 0.71 0.61 0.60 0.58 0.51 0.45 0.42 0.44 0.50 0.51 0.54 0.57
0.89 1.06 1.13 1.04 1.02 1.17 1.14 1.03 1.03 1.03 0.94 0.92 0.91 0.88 0.73 0.64 0.64 0.62 0.68 0.78 0.77 0.75 0.76 0.60 0.64 0.76 1.03 1.27 1.33 1.22 1.02 0.84 0.66 0.60 0.55 0.43 0.36 0.37 0.39 0.42 0.43 0.50 0.54
1.13 1.28 1.38 1.34 1.30 1.40 1.39 1.27 1.35 1.34 1.24 1.26 1.15 1.04 0.92 0.84 0.81 0.79 0.78 0.85 0.90 0.81 0.83 0.71 0.67 0.56 0.63 0.86 1.08 1.16 1.09 0.97 0.80 0.63 0.56 0.44 0.35 0.33 0.36 0.41 0.41 0.45 0.49
1.52 1.63 1.60 1.81 1.89 1.86 1.85 1.80 1.91 1.93 1.66 1.48 1.72 1.68 1.27 1.00 0.89 0.90 0.94 0.96 0.97 0.95 0.94 0.89 0.82 0.65 0.53 0.54 0.64 0.91 1.01 1.01 0.93 0.76 0.65 0.53 0.41 0.37 0.35 0.39 0.44 0.47 0.51
1.87 1.79 1.87 2.08 2.13 2.23 2.32 2.16 2.27 2.33 2.02 1.73 2.08 2.47 1.97 1.56 1.01 0.81 0.90 0.98 1.05 1.05 1.00 0.89 0.86 0.78 0.64 0.63 0.45 0.56 0.82 0.98 1.01 0.93 0.81 0.69 0.52 0.41 0.36 0.37 0.44 0.54 0.53
2.26 2.15 2.11 2.23 2.24 2.32 2.51 2.54 2.48 2.55 2.46 2.15 2.11 2.50 2.35 2.02 1.59 1.02 0.90 0.98 1.09 1.13 1.13 1.10 0.99 0.91 0.80 0.83 0.77 0.55 0.53 0.70 0.96 1.02 0.95 0.81 0.66 0.52 0.43 0.42 0.44 0.51 0.50
2.42 2.38 2.33 2.39 2.39 2.35 2.47 2.55 2.53 2.72 2.87 2.58 2.33 2.10 2.01 2.01 1.98 1.53 1.11 1.04 1.16 1.21 1.22 1.14 1.10 1.10 1.07 0.99 0.95 0.69 0.54 0.53 0.78 1.04 1.08 1.05 0.90 0.69 0.56 0.50 0.53 0.52 0.50
2.14 2.12 2.24 2.39 2.41 2.38 2.39 2.57 2.68 2.85 2.83 2.73 2.57 2.43 2.24 2.05 1.71 1.76 1.62 1.34 1.29 1.19 1.24 1.31 1.28 1.29 1.27 1.27 1.30 0.91 0.67 0.53 0.60 0.89 1.12 1.18 1.13 0.95 0.77 0.63 0.58 0.59 0.59
1.95 1.87 1.98 2.08 2.18 2.23 2.21 2.26 2.42 2.55 2.72 2.85 2.77 2.58 2.46 2.32 2.12 1.99 1.71 1.53 1.57 1.41 1.26 1.25 1.28 1.32 1.41 1.43 1.31 1.22 0.87 0.66 0.56 0.66 0.85 1.05 1.16 1.18 1.05 0.93 0.77 0.70 0.71
1.86 1.81 1.79 1.87 1.94 1.99 2.09 2.25 2.24 2.27 2.44 2.63 2.62 2.54 2.52 2.30 2.18 2.21 2.05 1.71 1.61 1.48 1.37 1.28 1.20 1.24 1.27 1.36 1.43 1.37 0.99 0.86 0.67 0.56 0.61 0.67 0.84 0.97 1.09 1.16 1.17 1.10 1.08
1.47 1.46 1.52 1.62 1.78 1.88 1.98 2.11 2.16 2.12 2.19 2.25 2.26 2.35 2.42 2.31 2.10 2.04 2.08 2.14 1.88 1.62 1.44 1.29 1.20 1.18 1.20 1.22 1.36 1.39 1.00 0.87 0.76 0.65 0.58 0.53 0.59 0.67 0.79 0.92 1.07 1.22 1.40
1.09 1.14 1.20 1.33 1.54 1.68 1.75 1.86 2.00 1.99 2.04 2.04 2.10 2.16 2.16 2.20 2.04 1.89 1.86 1.94 2.04 1.82 1.67 1.48 1.26 1.09 1.15 1.15 1.21 1.01 0.93 0.91 0.79 0.71 0.64 0.54 0.49 0.51 0.55 0.65 0.72 0.75 0.81
0.98 1.07 1.09 1.16 1.29 1.39 1.49 1.67 1.82 1.89 1.92 1.89 1.87 1.94 1.98 2.03 2.04 2.01 1.96 1.94 1.90 1.85 1.75 1.56 1.28 1.01 1.08 1.14 1.25 1.06 1.06 1.13 0.95 0.78 0.68 0.59 0.54 0.49 0.47 0.47 0.46 0.43 0.45
0.95 1.00 1.06 1.11 1.14 1.24 1.29 1.41 1.56 1.69 1.72 1.73 1.63 1.67 1.78 1.84 2.01 2.04 2.00 1.95 1.93 1.85 1.70 1.60 1.37 1.13 1.11 1.17 1.21 1.14 1.17 1.15 0.98 0.88 0.77 0.70 0.62 0.58 0.55 0.52 0.48 0.40 0.35
0.79 0.90 1.04 1.03 1.04 1.10 1.18 1.29 1.38 1.44 1.53 1.49 1.41 1.43 1.54 1.62 1.76 1.89 1.98 1.89 1.89 1.84 1.82 1.76 1.53 1.31 1.22 1.21 1.23 1.19 1.11 1.11 1.08 1.01 0.89 0.82 0.75 0.68 0.63 0.56 0.52 0.48 0.45
0.74 0.88 1.02 1.14 1.07 0.97 1.06 1.15 1.21 1.24 1.25 1.20 1.19 1.21 1.26 1.35 1.48 1.60 1.71 1.81 1.81 1.75 1.85 1.83 1.62 1.38 1.25 1.22 1.24 1.21 1.14 1.19 1.11 1.08 1.01 0.90 0.85 0.77 0.71 0.69 0.63 0.57 0.50
0.61 0.68 0.83 0.94 0.99 0.95 0.90 0.91 0.97 1.12 1.12 1.04 0.95 0.94 0.96 0.99 1.11 1.26 1.38 1.53 1.68 1.80 1.88 1.90 1.75 1.47 1.29 1.26 1.29 1.34 1.32 1.23 1.22 1.11 1.10 1.04 1.02 0.96 0.85 0.79 0.70 0.62 0.57
0.48 0.54 0.70 0.88 0.94 0.94 0.98 0.97 0.90 0.93 0.99 1.01 0.93 0.84 0.78 0.77 0.86 0.95 1.07 1.32 1.52 1.68 1.81 1.87 1.79 1.63 1.45 1.37 1.30 1.29 1.37 1.44 1.43 1.28 1.22 1.14 1.07 0.94 0.83 0.76 0.69 0.61 0.56
0.42 0.45 0.53 0.69 0.85 0.84 0.99 1.04 0.98 0.90 0.90 0.90 0.90 0.90 0.89 0.83 0.72 0.67 0.73 0.89 1.13 1.35 1.52 1.63 1.68 1.57 1.42 1.38 1.41 1.40 1.37 1.42 1.49 1.35 1.29 1.36 1.28 1.11 0.98 0.84 0.79 0.71 0.62
0.38 0.41 0.47 0.59 0.74 0.89 0.92 0.83 0.92 0.93 0.89 0.90 0.87 0.87 0.90 0.89 0.93 0.83 0.76 0.73 0.77 0.94 1.18 1.37 1.41 1.39 1.46 1.40 1.35 1.30 1.27 1.25 1.25 1.27 1.28 1.34 1.32 1.18 1.02 0.95 0.97 0.86 0.80
0.37 0.39 0.43 0.49 0.57 0.76 0.81 0.72 0.90 0.94 0.95 0.94 0.92 0.94 0.98 1.01 0.98 1.08 1.05 0.96 0.89 0.88 0.97 0.90 1.01 1.28 1.39 1.40 1.40 1.40 1.41 1.31 1.24 1.21 1.17 1.22 1.18 1.10 0.99 0.92 0.95 0.86 0.78
0.39 0.38 0.39 0.41 0.44 0.53 0.62 0.60 0.74 0.88 0.98 0.97 0.88 0.89 0.94 0.98 1.17 1.20 1.12 1.10 1.03 0.97 1.10 1.10 1.11 1.16 1.22 1.23 1.24 1.32 1.37 1.31 1.27 1.20 1.10 1.02 1.00 1.05 1.06 0.98 0.94 0.95 0.87
0.46 0.41 0.39 0.38 0.40 0.43 0.56 0.45 0.57 0.74 0.91 1.00 0.94 0.90 1.05 1.02 1.03 0.99 0.95 1.14 1.12 1.02 0.93 0.89 0.91 0.95 0.96 1.02 1.08 1.10 1.22 1.22 1.15 1.15 1.03 0.97 0.96 1.01 1.03 0.94 0.86 0.83 0.83